EW7452 Weather Reports


time (UTC)temp
C
wind
direction
speed
KPH
gust
KPH
rain 1hr
cm
rain 24hr
cm
rain mn
cm
humidity
%
barometer
mb
20260507090012 6 270 17.7 22.5 0.00 0.00 0.00 83 1015.0
20260507084502 6 253 20.9 25.7 0.00 0.00 0.00 81 1015.1
20260507083010 6 246 25.7 30.6 0.00 0.00 0.00 80 1015.0
20260507081604 6 248 29.0 33.8 0.00 0.00 0.00 81 1014.9
20260507080110 6 274 24.1 30.6 0.00 0.00 0.00 83 1014.8
20260507074523 5 280 24.1 32.2 0.00 0.00 0.00 84 1014.7
20260507073102 5 297 24.1 35.4 0.00 0.00 0.00 84 1014.4
20260507071510 5 312 22.5 32.2 0.00 0.00 0.00 85 1014.3
20260507070003 5 295 22.5 29.0 0.00 0.00 0.00 86 1014.3
20260507064609 5 290 25.7 33.8 0.00 0.00 0.00 85 1014.1
20260507063010 6 285 25.7 33.8 0.00 0.00 0.00 82 1014.0
20260507061601 6 271 25.7 33.8 0.00 0.00 0.00 81 1013.9
20260507060010 6 269 17.7 25.7 0.00 0.00 0.00 80 1014.0
20260507054601 6 214 11.3 14.5 0.00 0.00 0.00 80 1013.8
20260507053011 5 215 11.3 12.9 0.00 0.00 0.00 80 1013.7
20260507051501 6 220 14.5 19.3 0.00 0.00 0.00 78 1013.6
20260507050110 6 216 14.5 17.7 0.00 0.00 0.00 80 1013.6
20260507044609 5 217 14.5 19.3 0.00 0.00 0.00 82 1013.5
20260507043113 5 216 16.1 19.3 0.00 0.00 0.00 82 1013.4
20260507041604 4 215 17.7 24.1 0.00 0.00 0.00 83 1013.2
20260507040105 3 219 17.7 24.1 0.00 0.00 0.00 85 1013.1
20260507034609 3 215 19.3 24.1 0.00 0.00 0.00 85 1013.1
20260507033100 2 208 16.1 19.3 0.00 0.00 0.00 86 1013.0
20260507031610 2 199 16.1 24.1 0.00 0.00 0.00 85 1013.0
20260507030001 3 196 14.5 19.3 0.00 0.00 0.00 88 1012.8
20260507024502 2 199 16.1 19.3 0.00 0.00 0.00 88 1012.8
20260507023101 3 199 14.5 22.5 0.00 0.00 0.00 88 1012.9
20260507021501 3 208 16.1 22.5 0.00 0.00 0.00 88 1013.0
20260507020121 3 216 17.7 22.5 0.00 0.00 0.00 88 1012.9
20260507014504 3 216 19.3 25.7 0.00 0.00 0.00 88 1012.7
20260507013110 3 217 19.3 24.1 0.00 0.00 0.00 87 1012.7
20260507011521 3 214 14.5 24.1 0.00 0.00 0.00 86 1012.6
20260507010008 4 225 22.5 30.6 0.00 0.00 0.00 86 1012.5
20260507004600 4 220 22.5 32.2 0.00 0.00 0.00 87 1012.3
20260507001603 4 234 25.7 30.6 0.00 0.00 0.00 87 1012.3
20260507000110 4 229 24.1 29.0 0.00 0.00 0.00 87 1012.2
20260506234621 4 236 20.9 27.4 0.00 0.00 0.00 86 1012.2
20260506233012 4 229 24.1 30.6 0.00 0.00 0.00 86 1012.2
20260506230103 4 247 27.4 32.2 0.00 0.00 0.00 86 1012.0
20260506224502 4 251 27.4 32.2 0.00 0.00 0.00 85 1011.9
20260506223002 4 239 25.7 33.8 0.00 0.00 0.00 84 1011.8
20260506221612 4 246 29.0 35.4 0.00 0.00 0.00 84 1011.7
20260506220110 4 250 29.0 35.4 0.00 0.00 0.00 84 1011.5
20260506214502 4 255 29.0 38.6 0.00 0.00 0.00 84 1011.4
20260506213001 4 248 29.0 37.0 0.00 0.00 0.00 84 1011.3
20260506211601 4 253 27.4 33.8 0.00 0.00 0.00 84 1011.4
20260506210014 4 248 17.7 20.9 0.00 0.00 0.00 86 1011.4
20260506203008 4 229 25.7 29.0 0.00 0.00 0.00 85 1011.3
20260506201502 5 236 25.7 30.6 0.00 0.00 0.00 84 1011.4
20260506194512 5 235 25.7 32.2 0.00 0.00 0.00 82 1011.2
20260506193103 5 227 22.5 27.4 0.00 0.00 0.00 83 1011.2
20260506191601 5 235 24.1 29.0 0.00 0.00 0.00 79 1011.1
20260506190002 5 242 22.5 33.8 0.00 0.00 0.00 78 1011.1
20260506184511 5 245 27.4 32.2 0.00 0.00 0.00 77 1010.9
20260506183002 5 247 27.4 32.2 0.00 0.00 0.00 78 1010.7
20260506181602 5 245 25.7 33.8 0.00 0.00 0.00 78 1010.6
20260506174501 5 248 27.4 32.2 0.00 0.00 0.00 80 1010.5
20260506173002 5 246 25.7 32.2 0.00 0.00 0.00 80 1010.5
20260506171549 5 245 27.4 35.4 0.00 0.00 0.00 79 1010.4
20260506164602 6 252 29.0 33.8 0.00 0.00 0.00 79 1010.3
20260506163103 6 253 30.6 38.6 0.00 0.00 0.00 80 1010.1
20260506161612 6 251 32.2 37.0 0.00 0.00 0.00 80 1010.1
20260506160111 6 249 35.4 41.8 0.00 0.00 0.00 80 1010.0
20260506154511 6 255 29.0 33.8 0.00 0.00 0.00 80 1009.9
20260506153002 6 253 33.8 41.8 0.00 0.00 0.00 79 1009.9
20260506151502 6 262 35.4 43.5 0.00 0.00 0.00 79 1009.8
20260506150002 6 259 32.2 38.6 0.00 0.00 0.00 79 1009.8
20260506144613 6 259 27.4 37.0 0.00 0.00 0.00 80 1009.8
20260506143012 6 261 30.6 37.0 0.00 0.00 0.00 78 1009.8
20260506141503 6 262 29.0 37.0 0.00 0.00 0.00 77 1009.8
20260506140004 6 259 33.8 38.6 0.00 0.00 0.00 76 1009.7
20260506134602 6 258 30.6 37.0 0.00 0.00 0.00 77 1009.7
20260506133012 6 260 27.4 33.8 0.00 0.00 0.00 77 1009.6
20260506131604 6 256 27.4 38.6 0.00 0.00 0.00 77 1009.4
20260506130140 6 259 30.6 38.6 0.00 0.00 0.00 76 1009.3
20260506124534 6 259 30.6 37.0 0.00 0.00 0.00 78 1009.3
20260506123015 5 258 32.2 37.0 0.00 0.00 0.00 79 1009.2
20260506121602 5 256 32.2 37.0 0.00 0.00 0.00 80 1009.1
20260506120022 5 255 29.0 38.6 0.00 0.00 0.00 79 1009.0
20260506114502 5 260 32.2 38.6 0.00 0.00 0.00 80 1008.9
20260506113102 5 260 30.6 40.2 0.00 0.00 0.00 79 1008.8
20260506111601 5 255 32.2 38.6 0.00 0.00 0.00 78 1008.5
20260506110013 5 258 33.8 38.6 0.00 0.00 0.00 77 1008.3
20260506104522 5 263 29.0 38.6 0.00 0.00 0.00 78 1008.2
20260506103002 5 260 32.2 38.6 0.00 0.00 0.00 78 1008.1
20260506101502 5 265 33.8 41.8 0.00 0.00 0.00 77 1007.9
20260506100110 5 260 33.8 40.2 0.00 0.00 0.00 78 1007.7
20260506094511 5 253 37.0 41.8 0.00 0.00 0.00 77 1007.5
20260506093037 5 254 33.8 38.6 0.00 0.00 0.00 77 1007.2
20260506091503 5 262 35.4 43.5 0.00 0.00 0.00 75 1007.1